TimeEST,TemperatureF,Dew PointF,Humidity,Sea Level PressureIn,VisibilityMPH,Wind Direction,Wind SpeedMPH,Gust SpeedMPH,PrecipitationIn,Events,Conditions,WindDirDegrees,DateUTC
12:15 AM,34.9,27.7,75,29.92,10.0,North,3.5,-,N/A,,Clear,350,2013-02-14 05:15:00
12:35 AM,34.3,27.5,76,29.93,10.0,NW,4.6,-,N/A,,Clear,320,2013-02-14 05:35:00
12:55 AM,33.8,27.7,78,29.93,10.0,Calm,Calm,-,N/A,,Clear,0,2013-02-14 05:55:00
1:15 AM,33.1,27.3,79,29.93,10.0,NNW,3.5,-,N/A,,Clear,340,2013-02-14 06:15:00
1:35 AM,33.3,27.1,78,29.93,10.0,Calm,Calm,-,N/A,,Clear,0,2013-02-14 06:35:00
1:55 AM,32.7,26.6,78,29.94,10.0,Calm,Calm,-,N/A,,Clear,0,2013-02-14 06:55:00
2:15 AM,31.5,26.4,82,29.94,10.0,Calm,Calm,-,N/A,,Clear,0,2013-02-14 07:15:00
2:35 AM,30.7,26.6,85,29.94,10.0,Calm,Calm,-,N/A,,Clear,0,2013-02-14 07:35:00
2:55 AM,29.3,25.7,86,29.94,10.0,Calm,Calm,-,N/A,,Clear,0,2013-02-14 07:55:00
3:15 AM,28.4,26.4,92,29.95,10.0,Calm,Calm,-,N/A,,Scattered Clouds,0,2013-02-14 08:15:00
3:35 AM,28.2,26.2,92,29.95,10.0,Calm,Calm,-,N/A,,Scattered Clouds,0,2013-02-14 08:35:00
3:55 AM,30.6,25.7,82,29.95,10.0,Calm,Calm,-,N/A,,Clear,0,2013-02-14 08:55:00
4:15 AM,30.0,26.2,86,29.95,10.0,Calm,Calm,-,N/A,,Clear,0,2013-02-14 09:15:00
4:35 AM,28.6,25.2,87,29.96,10.0,Calm,Calm,-,N/A,,Clear,0,2013-02-14 09:35:00
4:55 AM,27.3,25.2,92,29.96,10.0,WSW,3.5,-,N/A,,Scattered Clouds,250,2013-02-14 09:55:00
5:15 AM,27.1,25.5,94,29.96,10.0,SW,4.6,-,N/A,,Scattered Clouds,230,2013-02-14 10:15:00
5:35 AM,26.6,24.8,93,29.96,10.0,WSW,4.6,-,N/A,,Scattered Clouds,250,2013-02-14 10:35:00
5:55 AM,25.7,24.4,95,29.96,10.0,SW,3.5,-,N/A,,Mostly Cloudy,220,2013-02-14 10:55:00
6:15 AM,26.2,24.8,94,29.96,10.0,Calm,Calm,-,N/A,,Mostly Cloudy,0,2013-02-14 11:15:00
6:35 AM,25.7,24.3,94,29.97,10.0,Calm,Calm,-,N/A,,Mostly Cloudy,0,2013-02-14 11:35:00
7:15 AM,24.8,23.4,94,29.99,10.0,Calm,Calm,-,N/A,,Clear,0,2013-02-14 12:15:00
7:35 AM,24.8,23.4,94,30.01,10.0,Calm,Calm,-,N/A,,Clear,0,2013-02-14 12:35:00
7:55 AM,24.8,23.4,94,30.01,7.0,Calm,Calm,-,N/A,,Clear,0,2013-02-14 12:55:00
8:15 AM,25.5,24.3,95,30.03,7.0,Calm,Calm,-,N/A,,Clear,0,2013-02-14 13:15:00
8:35 AM,27.7,26.4,95,30.03,7.0,Calm,Calm,-,N/A,,Clear,0,2013-02-14 13:35:00
8:55 AM,30.2,28.0,92,30.05,10.0,Calm,Calm,-,N/A,,Clear,0,2013-02-14 13:55:00
9:15 AM,32.0,28.8,88,30.04,10.0,Calm,Calm,-,N/A,,Clear,0,2013-02-14 14:15:00
9:35 AM,34.3,28.4,79,30.04,10.0,Calm,Calm,-,N/A,,Clear,0,2013-02-14 14:35:00
10:15 AM,36.9,27.5,69,30.04,10.0,Calm,Calm,-,N/A,,Clear,0,2013-02-14 15:15:00
10:55 AM,39.4,28.2,64,30.03,10.0,Calm,Calm,-,N/A,,Clear,0,2013-02-14 15:55:00
11:15 AM,39.4,27.3,62,30.03,10.0,Calm,Calm,-,N/A,,Clear,0,2013-02-14 16:15:00
11:35 AM,40.6,26.1,56,30.04,10.0,Calm,Calm,-,N/A,,Clear,0,2013-02-14 16:35:00
11:55 AM,42.1,27.1,55,30.04,10.0,Calm,Calm,-,N/A,,Clear,0,2013-02-14 16:55:00
12:15 PM,43.2,27.1,53,30.03,10.0,Calm,Calm,-,N/A,,Clear,0,2013-02-14 17:15:00
12:35 PM,45.1,27.7,50,30.02,10.0,Calm,Calm,-,N/A,,Clear,0,2013-02-14 17:35:00
12:55 PM,46.0,25.3,44,30.00,10.0,Calm,Calm,-,N/A,,Clear,0,2013-02-14 17:55:00
1:15 PM,47.5,25.7,43,29.99,10.0,Calm,Calm,-,N/A,,Clear,0,2013-02-14 18:15:00
1:35 PM,48.6,25.3,40,29.97,10.0,NNW,3.5,-,N/A,,Clear,330,2013-02-14 18:35:00
1:55 PM,49.1,24.1,38,29.96,10.0,Calm,Calm,-,N/A,,Clear,0,2013-02-14 18:55:00
2:15 PM,49.8,25.5,39,29.97,10.0,NW,6.9,-,N/A,,Clear,310,2013-02-14 19:15:00
2:35 PM,50.9,26.2,38,29.99,10.0,South,3.5,-,N/A,,Clear,170,2013-02-14 19:35:00
2:55 PM,51.3,26.1,38,29.97,10.0,Calm,Calm,-,N/A,,Clear,0,2013-02-14 19:55:00
3:15 PM,51.8,27.5,39,29.97,10.0,Calm,Calm,-,N/A,,Clear,0,2013-02-14 20:15:00
3:35 PM,52.2,25.2,35,29.97,10.0,Calm,Calm,-,N/A,,Clear,0,2013-02-14 20:35:00
3:55 PM,52.9,26.2,36,29.97,10.0,WNW,3.5,-,N/A,,Clear,290,2013-02-14 20:55:00
4:15 PM,52.5,25.7,35,29.98,10.0,NW,4.6,-,N/A,,Clear,310,2013-02-14 21:15:00
4:35 PM,52.3,26.2,36,29.98,10.0,NNW,6.9,-,N/A,,Clear,340,2013-02-14 21:35:00
4:55 PM,52.2,24.8,35,29.98,10.0,WNW,4.6,-,N/A,,Clear,300,2013-02-14 21:55:00
5:15 PM,51.4,23.0,33,29.98,10.0,NW,9.2,-,N/A,,Clear,320,2013-02-14 22:15:00
5:35 PM,50.5,23.5,35,29.98,10.0,NW,5.8,-,N/A,,Clear,310,2013-02-14 22:35:00
5:55 PM,49.6,23.0,35,29.99,10.0,NNW,3.5,-,N/A,,Clear,340,2013-02-14 22:55:00
6:15 PM,47.8,22.8,37,29.99,10.0,Calm,Calm,-,N/A,,Clear,0,2013-02-14 23:15:00
6:35 PM,46.4,23.4,40,29.99,10.0,NW,3.5,-,N/A,,Clear,320,2013-02-14 23:35:00
6:55 PM,44.6,24.4,45,30.00,10.0,NW,3.5,-,N/A,,Clear,310,2013-02-14 23:55:00
7:15 PM,44.1,24.6,46,30.00,10.0,WNW,3.5,-,N/A,,Clear,300,2013-02-15 00:15:00
7:35 PM,39.9,28.8,64,30.01,10.0,WSW,3.5,-,N/A,,Clear,240,2013-02-15 00:35:00
7:55 PM,35.8,29.3,77,30.01,10.0,WSW,5.8,-,N/A,,Clear,250,2013-02-15 00:55:00
8:15 PM,35.4,28.6,76,30.01,10.0,Calm,Calm,-,N/A,,Clear,0,2013-02-15 01:15:00
8:35 PM,32.7,28.8,85,30.01,10.0,Calm,Calm,-,N/A,,Clear,0,2013-02-15 01:35:00
8:55 PM,32.0,28.8,88,30.01,10.0,Calm,Calm,-,N/A,,Clear,0,2013-02-15 01:55:00
9:15 PM,31.6,28.4,88,30.01,10.0,Calm,Calm,-,N/A,,Clear,0,2013-02-15 02:15:00
9:35 PM,31.1,28.4,90,30.02,10.0,Calm,Calm,-,N/A,,Clear,0,2013-02-15 02:35:00
9:55 PM,30.4,27.3,88,30.03,10.0,Calm,Calm,-,N/A,,Clear,0,2013-02-15 02:55:00
10:15 PM,29.7,27.1,90,30.04,10.0,Calm,Calm,-,N/A,,Clear,0,2013-02-15 03:15:00
10:35 PM,29.8,27.9,92,30.04,10.0,Calm,Calm,-,N/A,,Clear,0,2013-02-15 03:35:00
10:55 PM,29.3,27.0,91,30.05,10.0,Calm,Calm,-,N/A,,Clear,0,2013-02-15 03:55:00
11:15 PM,29.1,27.3,93,30.04,10.0,Calm,Calm,-,N/A,,Clear,0,2013-02-15 04:15:00
11:35 PM,27.7,25.9,93,30.05,10.0,Calm,Calm,-,N/A,,Clear,0,2013-02-15 04:35:00
11:55 PM,27.3,25.5,93,30.05,10.0,Calm,Calm,-,N/A,,Clear,0,2013-02-15 04:55:00